THY4154 LTFJ-LTFC

Flight info

Callsign THY4154
Flight time 0h 43m
Altitude 27000
Route ROXUK UN617 ERVAG UT305 TEKDO UT35 BABSA
Aircraft B738/M-SDE2E3FGHIRWXY/LB1

Departure

Time 2026-04-21 07:18
Airport Istanbul Sabiha Gökçen International Airport (LTFJ)

Arrival

Time 2026-04-21 08:01
Airport Süleyman Demirel International Airport (LTFC)
Time Latitude Longitude Altitude Speed Heading
2026-04-21 06:52 40.90618 29.32129 320 ft 0 kts 154°
2026-04-21 07:04 40.90626 29.32124 318 ft 2 kts 153°
2026-04-21 07:04 40.90641 29.32114 320 ft 2 kts 153°
2026-04-21 07:04 40.90655 29.32104 318 ft 2 kts 153°
2026-04-21 07:04 40.90670 29.32095 320 ft 2 kts 152°
2026-04-21 07:05 40.90682 29.32080 320 ft 2 kts 85°
2026-04-21 07:05 40.90677 29.32059 320 ft 2 kts 64°
2026-04-21 07:05 40.90671 29.32044 318 ft 1 kts 63°
2026-04-21 07:05 40.90671 29.32043 318 ft 0 kts 63°
2026-04-21 07:09 40.90671 29.32044 320 ft 1 kts 64°
2026-04-21 07:09 40.90681 29.32072 320 ft 6 kts 65°
2026-04-21 07:09 40.90706 29.32139 320 ft 11 kts 64°
2026-04-21 07:09 40.90732 29.32235 320 ft 11 kts 95°
2026-04-21 07:10 40.90681 29.32300 320 ft 11 kts 154°
2026-04-21 07:10 40.90619 29.32348 319 ft 10 kts 133°
2026-04-21 07:10 40.90572 29.32426 319 ft 13 kts 149°
2026-04-21 07:10 40.90472 29.32492 314 ft 20 kts 154°
2026-04-21 07:11 40.90339 29.32577 318 ft 20 kts 160°
2026-04-21 07:11 40.90252 29.32496 319 ft 17 kts 241°
2026-04-21 07:11 40.90202 29.32359 319 ft 16 kts 244°
2026-04-21 07:11 40.90153 29.32225 319 ft 17 kts 244°
2026-04-21 07:12 40.90098 29.32080 320 ft 17 kts 237°
2026-04-21 07:12 40.90048 29.32055 318 ft 7 kts 166°
2026-04-21 07:12 40.89985 29.32093 318 ft 14 kts 153°
2026-04-21 07:12 40.89864 29.32173 311 ft 24 kts 153°
2026-04-21 07:13 40.89710 29.32273 307 ft 26 kts 154°
2026-04-21 07:13 40.89572 29.32347 307 ft 17 kts 175°
2026-04-21 07:13 40.89502 29.32442 306 ft 14 kts 79°
2026-04-21 07:13 40.89543 29.32559 307 ft 14 kts 64°
2026-04-21 07:14 40.89592 29.32688 306 ft 18 kts 64°
2026-04-21 07:14 40.89652 29.32851 307 ft 22 kts 63°
2026-04-21 07:14 40.89726 29.33054 305 ft 27 kts 64°
2026-04-21 07:14 40.89816 29.33296 302 ft 30 kts 64°
2026-04-21 07:15 40.89900 29.33524 308 ft 27 kts 64°
2026-04-21 07:15 40.89979 29.33738 311 ft 21 kts 64°
2026-04-21 07:15 40.90021 29.33890 316 ft 12 kts 95°
2026-04-21 07:15 40.89996 29.33931 316 ft 6 kts 154°
2026-04-21 07:16 40.89954 29.33956 316 ft 8 kts 156°
2026-04-21 07:16 40.89896 29.33994 318 ft 10 kts 156°
2026-04-21 07:16 40.89840 29.33943 318 ft 13 kts 244°
2026-04-21 07:16 40.89837 29.33934 318 ft 0 kts 245°
2026-04-21 07:17 40.89835 29.33930 318 ft 4 kts 245°
2026-04-21 07:17 40.89747 29.33689 311 ft 66 kts 244°
2026-04-21 07:17 40.89439 29.32850 308 ft 133 kts 244°
2026-04-21 07:17 40.88951 29.31580 587 ft 163 kts 244°
2026-04-21 07:18 40.88348 29.30324 1397 ft 166 kts 227°
2026-04-21 07:18 40.87400 29.29298 1844 ft 192 kts 216°
2026-04-21 07:18 40.86224 29.28233 2185 ft 215 kts 215°
2026-04-21 07:18 40.84974 29.27113 2732 ft 223 kts 215°
2026-04-21 07:19 40.83668 29.25946 3405 ft 229 kts 215°
2026-04-21 07:19 40.82311 29.24740 3899 ft 245 kts 215°
2026-04-21 07:19 40.80878 29.23469 4616 ft 250 kts 215°
2026-04-21 07:19 40.79425 29.22183 5441 ft 253 kts 215°
2026-04-21 07:20 40.77941 29.20919 6253 ft 256 kts 208°
2026-04-21 07:20 40.76202 29.20330 7015 ft 263 kts 186°
2026-04-21 07:20 40.74332 29.20508 7559 ft 279 kts 165°
2026-04-21 07:20 40.72514 29.21513 8254 ft 287 kts 156°
2026-04-21 07:21 40.70714 29.22699 9010 ft 291 kts 156°
2026-04-21 07:21 40.68885 29.23895 9763 ft 295 kts 156°
2026-04-21 07:21 40.67021 29.25088 10441 ft 300 kts 157°
2026-04-21 07:21 40.65084 29.26309 10753 ft 320 kts 157°
2026-04-21 07:22 40.63002 29.27606 10987 ft 341 kts 157°
2026-04-21 07:22 40.60817 29.28965 11489 ft 351 kts 156°
2026-04-21 07:22 40.58599 29.30345 12208 ft 355 kts 156°
2026-04-21 07:22 40.56345 29.31747 12941 ft 360 kts 156°
2026-04-21 07:23 40.54067 29.33163 13669 ft 365 kts 156°
2026-04-21 07:23 40.51753 29.34599 14336 ft 369 kts 156°
2026-04-21 07:23 40.49418 29.36046 15024 ft 373 kts 156°
2026-04-21 07:23 40.47145 29.37652 15679 ft 380 kts 147°
2026-04-21 07:24 40.45041 29.39795 16349 ft 385 kts 141°
2026-04-21 07:24 40.42973 29.42064 17035 ft 390 kts 141°
2026-04-21 07:24 40.40879 29.44352 17692 ft 394 kts 141°
2026-04-21 07:24 40.38735 29.46639 18000 ft 398 kts 142°
2026-04-21 07:25 40.36571 29.48905 17994 ft 398 kts 142°
2026-04-21 07:25 40.34405 29.51156 17991 ft 397 kts 143°
2026-04-21 07:25 40.32220 29.53425 18334 ft 404 kts 142°
2026-04-21 07:25 40.30015 29.55716 18981 ft 405 kts 142°
2026-04-21 07:26 40.27804 29.58014 19642 ft 407 kts 142°
2026-04-21 07:26 40.25570 29.60336 20206 ft 411 kts 142°
2026-04-21 07:26 40.23317 29.62674 20748 ft 416 kts 142°
2026-04-21 07:26 40.20926 29.64819 21281 ft 419 kts 156°
2026-04-21 07:27 40.18156 29.65947 21861 ft 417 kts 173°
2026-04-21 07:27 40.15285 29.66550 22418 ft 419 kts 174°
2026-04-21 07:27 40.12379 29.67103 22937 ft 424 kts 175°
2026-04-21 07:27 40.09454 29.67662 23588 ft 424 kts 174°
2026-04-21 07:28 40.06582 29.68231 24247 ft 422 kts 174°
2026-04-21 07:28 40.03691 29.68823 24903 ft 419 kts 174°
2026-04-21 07:28 40.00808 29.69424 25343 ft 423 kts 174°
2026-04-21 07:28 39.97886 29.70036 25562 ft 425 kts 174°
2026-04-21 07:29 39.94981 29.70648 25801 ft 421 kts 174°
2026-04-21 07:29 39.92102 29.71253 26049 ft 416 kts 174°
2026-04-21 07:29 39.89245 29.71876 26294 ft 417 kts 171°
2026-04-21 07:29 39.86480 29.73099 26548 ft 421 kts 160°
2026-04-21 07:30 39.83803 29.74626 26796 ft 421 kts 159°
2026-04-21 07:30 39.81138 29.76199 27005 ft 421 kts 158°
2026-04-21 07:30 39.78458 29.77776 26981 ft 422 kts 159°
2026-04-21 07:30 39.75787 29.79324 26990 ft 420 kts 159°
2026-04-21 07:31 39.73116 29.80851 26998 ft 420 kts 159°
2026-04-21 07:31 39.70434 29.82367 27000 ft 420 kts 159°
2026-04-21 07:31 39.67784 29.83857 26992 ft 420 kts 160°
2026-04-21 07:31 39.65098 29.85363 26996 ft 420 kts 160°
2026-04-21 07:32 39.62418 29.86865 26997 ft 420 kts 160°
2026-04-21 07:32 39.59734 29.88369 26992 ft 420 kts 159°
2026-04-21 07:32 39.57053 29.89871 26996 ft 420 kts 160°
2026-04-21 07:32 39.54373 29.91372 26992 ft 419 kts 160°
2026-04-21 07:33 39.51693 29.92870 27001 ft 419 kts 159°
2026-04-21 07:33 39.49020 29.94375 26992 ft 418 kts 159°
2026-04-21 07:33 39.46356 29.95882 26996 ft 418 kts 159°
2026-04-21 07:33 39.43697 29.97388 26999 ft 417 kts 159°
2026-04-21 07:34 39.41036 29.98893 27009 ft 417 kts 159°
2026-04-21 07:34 39.38380 30.00394 27001 ft 417 kts 159°
2026-04-21 07:34 39.35725 30.01893 26998 ft 416 kts 159°
2026-04-21 07:34 39.33100 30.03373 27006 ft 416 kts 159°
2026-04-21 07:35 39.30448 30.04867 27007 ft 416 kts 159°
2026-04-21 07:35 39.27756 30.06381 27003 ft 416 kts 159°
2026-04-21 07:35 39.25134 30.07855 27008 ft 416 kts 159°
2026-04-21 07:35 39.22477 30.09348 27005 ft 416 kts 159°
2026-04-21 07:36 39.19826 30.10836 27013 ft 416 kts 159°
2026-04-21 07:36 39.17169 30.12327 27006 ft 416 kts 159°
2026-04-21 07:36 39.14513 30.13816 27015 ft 416 kts 159°
2026-04-21 07:36 39.11861 30.15301 27015 ft 416 kts 159°
2026-04-21 07:37 39.09204 30.16771 27009 ft 415 kts 162°
2026-04-21 07:37 39.06449 30.17817 27010 ft 410 kts 172°
2026-04-21 07:37 39.03637 30.18278 27009 ft 405 kts 183°
2026-04-21 07:37 39.00830 30.18228 27020 ft 403 kts 186°
2026-04-21 07:38 38.98019 30.18101 26792 ft 406 kts 186°
2026-04-21 07:38 38.95200 30.17961 26533 ft 405 kts 186°
2026-04-21 07:38 38.92425 30.17830 26278 ft 404 kts 186°
2026-04-21 07:38 38.89573 30.17706 26036 ft 405 kts 186°
2026-04-21 07:39 38.86749 30.17592 25786 ft 407 kts 186°
2026-04-21 07:39 38.83954 30.17485 25542 ft 407 kts 186°
2026-04-21 07:39 38.81117 30.17381 25301 ft 408 kts 185°
2026-04-21 07:39 38.78272 30.17279 25064 ft 409 kts 185°
2026-04-21 07:40 38.75432 30.17178 24815 ft 409 kts 185°
2026-04-21 07:40 38.72580 30.17076 24573 ft 410 kts 185°
2026-04-21 07:40 38.69724 30.16975 24079 ft 411 kts 185°
2026-04-21 07:40 38.66876 30.16873 23653 ft 408 kts 185°
2026-04-21 07:41 38.64050 30.16773 23151 ft 405 kts 185°
2026-04-21 07:41 38.61237 30.16674 22654 ft 402 kts 185°
2026-04-21 07:41 38.58458 30.16576 22220 ft 398 kts 185°
2026-04-21 07:41 38.55701 30.16478 21752 ft 395 kts 185°
2026-04-21 07:42 38.52968 30.16380 21305 ft 392 kts 185°
2026-04-21 07:42 38.50254 30.16283 20864 ft 389 kts 185°
2026-04-21 07:42 38.47597 30.16188 20437 ft 386 kts 185°
2026-04-21 07:42 38.44920 30.16093 20006 ft 384 kts 185°
2026-04-21 07:43 38.42258 30.15997 19569 ft 381 kts 185°
2026-04-21 07:43 38.39615 30.15903 19142 ft 379 kts 185°
2026-04-21 07:43 38.36983 30.15810 18718 ft 377 kts 184°
2026-04-21 07:43 38.34363 30.15903 18274 ft 378 kts 175°
2026-04-21 07:44 38.31783 30.16569 17794 ft 379 kts 164°
2026-04-21 07:44 38.29308 30.17698 17348 ft 377 kts 161°
2026-04-21 07:44 38.26857 30.18868 16913 ft 375 kts 161°
2026-04-21 07:44 38.24423 30.20009 16475 ft 373 kts 162°
2026-04-21 07:45 38.21995 30.21136 16037 ft 370 kts 162°
2026-04-21 07:45 38.19578 30.22250 15627 ft 368 kts 162°
2026-04-21 07:45 38.17174 30.23355 15205 ft 366 kts 162°
2026-04-21 07:45 38.14785 30.24453 14769 ft 364 kts 162°
2026-04-21 07:46 38.12401 30.25548 14325 ft 363 kts 162°
2026-04-21 07:46 38.10028 30.26637 13909 ft 362 kts 162°
2026-04-21 07:46 38.07667 30.27719 13449 ft 360 kts 162°
2026-04-21 07:46 38.05335 30.28790 13244 ft 351 kts 162°
2026-04-21 07:47 38.03097 30.29815 13099 ft 342 kts 162°
2026-04-21 07:47 38.00883 30.30764 12927 ft 329 kts 167°
2026-04-21 07:47 37.98679 30.31341 12826 ft 318 kts 173°
2026-04-21 07:47 37.96514 30.31775 12597 ft 313 kts 173°
2026-04-21 07:48 37.94365 30.32195 12281 ft 308 kts 173°
2026-04-21 07:48 37.92282 30.32601 12078 ft 296 kts 173°
2026-04-21 07:48 37.90281 30.32990 11907 ft 287 kts 173°
2026-04-21 07:48 37.88316 30.33373 11706 ft 285 kts 173°
2026-04-21 07:49 37.86363 30.33751 11503 ft 283 kts 173°
2026-04-21 07:49 37.84422 30.33867 11265 ft 276 kts 194°
2026-04-21 07:49 37.83256 30.33318 11114 ft 268 kts 216°
2026-04-21 07:49 37.81927 30.31728 10944 ft 261 kts 233°
2026-04-21 07:50 37.80884 30.29862 10726 ft 259 kts 237°
2026-04-21 07:50 37.79700 30.28144 10508 ft 259 kts 232°
2026-04-21 07:50 37.78573 30.26387 10303 ft 254 kts 234°
2026-04-21 07:50 37.77484 30.24671 10082 ft 246 kts 232°
2026-04-21 07:51 37.76412 30.23064 9898 ft 232 kts 232°
2026-04-21 07:51 37.75393 30.21539 9617 ft 222 kts 231°
2026-04-21 07:51 37.74399 30.20090 9349 ft 215 kts 231°
2026-04-21 07:51 37.73426 30.18693 9112 ft 208 kts 231°
2026-04-21 07:52 37.72497 30.17351 8824 ft 204 kts 228°
2026-04-21 07:52 37.71287 30.16456 8500 ft 205 kts 192°
2026-04-21 07:52 37.69868 30.16345 8250 ft 205 kts 182°
2026-04-21 07:52 37.68441 30.16342 8003 ft 206 kts 182°
2026-04-21 07:53 37.66997 30.16343 7799 ft 209 kts 181°
2026-04-21 07:53 37.65553 30.16344 7658 ft 206 kts 181°
2026-04-21 07:53 37.64134 30.16353 7515 ft 202 kts 181°
2026-04-21 07:53 37.62779 30.16091 7334 ft 195 kts 210°
2026-04-21 07:54 37.61861 30.14910 7224 ft 192 kts 249°
2026-04-21 07:54 37.61738 30.13265 7098 ft 192 kts 287°
2026-04-21 07:54 37.62481 30.11873 7044 ft 197 kts 323°
2026-04-21 07:54 37.63736 30.11223 7001 ft 198 kts 355°
2026-04-21 07:55 37.65103 30.11300 7001 ft 197 kts
2026-04-21 07:55 37.66473 30.11463 6959 ft 197 kts
2026-04-21 07:55 37.67815 30.11690 6969 ft 196 kts 17°
2026-04-21 07:55 37.68907 30.12714 7016 ft 201 kts 46°
2026-04-21 07:56 37.69897 30.14013 6995 ft 207 kts 45°
2026-04-21 07:56 37.70863 30.15337 6984 ft 203 kts 46°
2026-04-21 07:56 37.71779 30.16651 6971 ft 200 kts 47°
2026-04-21 07:56 37.72700 30.17989 6977 ft 201 kts 47°
2026-04-21 07:57 37.73640 30.19361 6657 ft 210 kts 47°
2026-04-21 07:57 37.74580 30.20732 6301 ft 210 kts 47°
2026-04-21 07:57 37.75523 30.22112 5882 ft 204 kts 47°
2026-04-21 07:57 37.76431 30.23437 5544 ft 194 kts 47°
2026-04-21 07:58 37.77294 30.24688 5267 ft 184 kts 47°
2026-04-21 07:58 37.78128 30.25874 5008 ft 178 kts 47°
2026-04-21 07:58 37.78933 30.27050 4745 ft 176 kts 48°
2026-04-21 07:58 37.79719 30.28206 4476 ft 171 kts 49°
2026-04-21 07:59 37.80472 30.29313 4254 ft 163 kts 48°
2026-04-21 07:59 37.81212 30.30399 3997 ft 163 kts 49°
2026-04-21 07:59 37.81955 30.31494 3784 ft 166 kts 48°
2026-04-21 07:59 37.82719 30.32605 3563 ft 166 kts 49°
2026-04-21 08:00 37.83480 30.33710 3311 ft 166 kts 49°
2026-04-21 08:00 37.84229 30.34815 3042 ft 165 kts 50°
2026-04-21 08:00 37.84972 30.35904 2837 ft 159 kts 49°
2026-04-21 08:00 37.85610 30.36846 2837 ft 120 kts 49°
2026-04-21 08:01 37.86054 30.37504 2841 ft 73 kts 50°
2026-04-21 08:01 37.86338 30.37923 2839 ft 55 kts 50°
2026-04-21 08:01 37.86512 30.38102 2840 ft 18 kts 26°
2026-04-21 08:02 37.86469 30.38118 2839 ft 7 kts 231°
2026-04-21 08:02 37.86432 30.38061 2840 ft 9 kts 231°
2026-04-21 08:02 37.86385 30.37992 2840 ft 12 kts 227°
2026-04-21 08:02 37.86322 30.37901 2840 ft 16 kts 229°
2026-04-21 08:03 37.86243 30.37783 2841 ft 19 kts 230°
2026-04-21 08:03 37.86150 30.37645 2841 ft 22 kts 229°
2026-04-21 08:03 37.86041 30.37484 2840 ft 25 kts 229°
2026-04-21 08:03 37.85921 30.37307 2838 ft 26 kts 229°
2026-04-21 08:04 37.85805 30.37137 2836 ft 24 kts 229°
2026-04-21 08:04 37.85702 30.36985 2837 ft 22 kts 229°
2026-04-21 08:04 37.85660 30.36903 2838 ft 3 kts 272°
2026-04-21 08:04 37.85668 30.36873 2838 ft 4 kts 299°
2026-04-21 08:05 37.85691 30.36847 2838 ft 6 kts 321°
2026-04-21 08:05 37.85740 30.36797 2839 ft 13 kts 321°
2026-04-21 08:05 37.85811 30.36725 2839 ft 12 kts 335°
2026-04-21 08:05 37.85860 30.36716 2838 ft 0 kts